Time,TemperatureF,DewpointF,PressureIn,WindDirection,WindDirectionDegrees,WindSpeedMPH,WindSpeedGustMPH,Humidity,HourlyPrecipIn,Conditions,Clouds,dailyrainin,SoftwareType,DateUTC
2013-02-19 00:02:00,21.7,-5.6,30.26,SSW,198,9.0,16.0,29,0.00,,,0.00,meteohub,2013-02-19 07:02:00,
2013-02-19 00:12:00,21.7,-6.3,30.26,SSW,193,5.0,19.0,28,0.00,,,0.00,meteohub,2013-02-19 07:12:00,
2013-02-19 00:22:00,22.1,-7.6,30.26,SSW,207,7.0,19.0,26,0.00,,,0.00,meteohub,2013-02-19 07:22:00,
2013-02-19 00:32:00,21.2,-7.6,30.26,SSW,198,5.0,11.0,27,0.00,,,0.00,meteohub,2013-02-19 07:32:00,
2013-02-19 00:42:00,20.3,-6.9,30.26,South,191,6.0,15.0,29,0.00,,,0.00,meteohub,2013-02-19 07:42:00,
2013-02-19 00:52:00,19.8,-7.4,30.26,South,183,7.0,15.0,29,0.00,,,0.00,meteohub,2013-02-19 07:52:00,
2013-02-19 01:02:00,19.9,-5.8,30.26,SSW,197,9.0,13.0,31,0.00,,,0.00,meteohub,2013-02-19 08:02:00,
2013-02-19 01:12:00,19.6,-6.2,30.26,SSE,168,6.0,13.0,31,0.00,,,0.00,meteohub,2013-02-19 08:12:00,
2013-02-19 01:22:00,17.8,-6.5,30.26,South,172,4.0,11.0,33,0.00,,,0.00,meteohub,2013-02-19 08:22:00,
2013-02-19 01:32:00,18.1,-6.7,30.25,SSW,205,10.0,10.0,32,0.00,,,0.00,meteohub,2013-02-19 08:32:00,
2013-02-19 01:42:00,19.2,-7.1,30.26,SSW,195,5.0,13.0,30,0.00,,,0.00,meteohub,2013-02-19 08:42:00,
2013-02-19 01:52:00,18.0,-6.9,30.25,SSW,195,0.0,11.0,32,0.00,,,0.00,meteohub,2013-02-19 08:52:00,
2013-02-19 02:02:00,16.0,-5.6,30.25,SSW,195,0.0,5.0,37,0.00,,,0.00,meteohub,2013-02-19 09:02:00,
2013-02-19 02:12:00,14.4,-5.1,30.25,SSW,195,0.0,2.0,41,0.00,,,0.00,meteohub,2013-02-19 09:12:00,
2013-02-19 02:22:00,12.6,-6.2,30.25,SSW,195,1.0,2.0,42,0.00,,,0.00,meteohub,2013-02-19 09:22:00,
2013-02-19 02:32:00,11.7,-5.6,30.25,SSW,195,1.0,4.0,45,0.00,,,0.00,meteohub,2013-02-19 09:32:00,
2013-02-19 02:42:00,11.1,-6.2,30.25,SSW,195,0.0,3.0,45,0.00,,,0.00,meteohub,2013-02-19 09:42:00,
2013-02-19 02:52:00,12.0,-5.8,30.25,SSW,195,0.0,6.0,44,0.00,,,0.00,meteohub,2013-02-19 09:52:00,
2013-02-19 03:02:00,11.7,-6.0,30.25,SSW,195,5.0,5.0,44,0.00,,,0.00,meteohub,2013-02-19 10:02:00,
2013-02-19 03:12:00,10.8,-5.4,30.25,SSW,198,1.0,7.0,47,0.00,,,0.00,meteohub,2013-02-19 10:12:00,
2013-02-19 03:22:00,10.6,-5.6,30.25,SSW,198,1.0,7.0,47,0.00,,,0.00,meteohub,2013-02-19 10:22:00,
2013-02-19 03:32:00,10.6,-6.2,30.25,SSW,201,2.0,6.0,46,0.00,,,0.00,meteohub,2013-02-19 10:32:00,
2013-02-19 03:42:00,11.5,-6.2,30.25,SSW,201,0.0,6.0,44,0.00,,,0.00,meteohub,2013-02-19 10:42:00,
2013-02-19 03:52:00,11.8,-6.3,30.25,SSW,201,0.0,5.0,43,0.00,,,0.00,meteohub,2013-02-19 10:52:00,
2013-02-19 04:02:00,12.9,-5.4,30.25,SSW,201,0.0,4.0,43,0.00,,,0.00,meteohub,2013-02-19 11:02:00,
2013-02-19 04:12:00,12.7,-6.0,30.26,SSW,201,0.0,5.0,42,0.00,,,0.00,meteohub,2013-02-19 11:12:00,
2013-02-19 04:22:00,11.7,-5.6,30.25,SSW,201,1.0,4.0,45,0.00,,,0.00,meteohub,2013-02-19 11:22:00,
2013-02-19 04:32:00,10.4,-5.8,30.25,SSW,201,0.0,3.0,47,0.00,,,0.00,meteohub,2013-02-19 11:32:00,
2013-02-19 04:42:00,9.9,-6.0,30.25,SSW,201,0.0,2.0,48,0.00,,,0.00,meteohub,2013-02-19 11:42:00,
2013-02-19 04:52:00,10.6,-5.3,30.25,SSW,201,0.0,5.0,48,0.00,,,0.00,meteohub,2013-02-19 11:52:00,
2013-02-19 05:02:00,10.2,-6.0,30.25,SSW,201,2.0,5.0,47,0.00,,,0.00,meteohub,2013-02-19 12:02:00,
2013-02-19 05:12:00,10.4,-5.8,30.26,SSW,201,3.0,4.0,47,0.00,,,0.00,meteohub,2013-02-19 12:12:00,
2013-02-19 05:22:00,10.9,-5.8,30.26,SSW,201,3.0,5.0,46,0.00,,,0.00,meteohub,2013-02-19 12:22:00,
2013-02-19 05:32:00,11.7,-6.0,30.25,SSW,201,7.0,7.0,44,0.00,,,0.00,meteohub,2013-02-19 12:32:00,
2013-02-19 05:42:00,11.8,-6.3,30.25,SSW,203,3.0,8.0,43,0.00,,,0.00,meteohub,2013-02-19 12:42:00,
2013-02-19 05:52:00,10.8,-6.9,30.25,SSW,203,1.0,12.0,44,0.00,,,0.00,meteohub,2013-02-19 12:52:00,
2013-02-19 06:02:00,9.3,-6.9,30.25,SSW,203,1.0,4.0,47,0.00,,,0.00,meteohub,2013-02-19 13:02:00,
2013-02-19 06:12:00,9.0,-6.7,30.26,SSW,203,6.0,6.0,48,0.00,,,0.00,meteohub,2013-02-19 13:12:00,
2013-02-19 06:22:00,9.9,-6.3,30.26,SSW,203,4.0,7.0,47,0.00,,,0.00,meteohub,2013-02-19 13:22:00,
2013-02-19 06:32:00,9.0,-7.2,30.27,SSW,203,2.0,8.0,47,0.00,,,0.00,meteohub,2013-02-19 13:32:00,
2013-02-19 06:42:00,8.8,-6.5,30.27,SSW,202,7.0,7.0,49,0.00,,,0.00,meteohub,2013-02-19 13:42:00,
2013-02-19 06:52:00,10.8,-6.3,30.27,SSW,204,7.0,10.0,45,0.00,,,0.00,meteohub,2013-02-19 13:52:00,
2013-02-19 07:02:00,11.7,-6.5,30.27,SSW,199,2.0,12.0,43,0.00,,,0.00,meteohub,2013-02-19 14:02:00,
2013-02-19 07:12:00,10.2,-6.9,30.27,SSW,199,3.0,7.0,45,0.00,,,0.00,meteohub,2013-02-19 14:12:00,
2013-02-19 07:22:00,10.0,-6.7,30.27,SSW,199,4.0,6.0,46,0.00,,,0.00,meteohub,2013-02-19 14:22:00,
2013-02-19 07:32:00,12.0,-5.8,30.27,SSW,199,3.0,8.0,44,0.00,,,0.00,meteohub,2013-02-19 14:32:00,
2013-02-19 07:42:00,14.7,-4.7,30.28,SSW,209,5.0,11.0,41,0.00,,,0.00,meteohub,2013-02-19 14:42:00,
2013-02-19 07:52:00,17.1,-4.2,30.27,SSW,213,9.0,11.0,38,0.00,,,0.00,meteohub,2013-02-19 14:52:00,
2013-02-19 08:02:00,19.0,-4.2,30.27,SSW,197,7.0,14.0,35,0.00,,,0.00,meteohub,2013-02-19 15:02:00,
2013-02-19 08:12:00,20.1,-3.8,30.27,SSW,201,9.0,13.0,34,0.00,,,0.00,meteohub,2013-02-19 15:12:00,
2013-02-19 08:22:00,19.8,-4.0,30.27,SW,214,6.0,11.0,34,0.00,,,0.00,meteohub,2013-02-19 15:22:00,
2013-02-19 08:32:00,20.7,-3.3,30.27,SW,216,6.0,9.0,34,0.00,,,0.00,meteohub,2013-02-19 15:32:00,
2013-02-19 08:42:00,20.8,-3.8,30.27,SW,216,4.0,8.0,33,0.00,,,0.00,meteohub,2013-02-19 15:42:00,
2013-02-19 08:52:00,21.6,-3.8,30.26,SW,216,0.0,6.0,32,0.00,,,0.00,meteohub,2013-02-19 15:52:00,
2013-02-19 09:02:00,22.3,-3.8,30.25,SW,216,3.0,7.0,31,0.00,,,0.00,meteohub,2013-02-19 16:02:00,
2013-02-19 09:12:00,23.2,-2.9,30.25,SW,216,4.0,7.0,31,0.00,,,0.00,meteohub,2013-02-19 16:12:00,
2013-02-19 09:22:00,24.4,-2.6,30.24,SW,216,0.0,7.0,30,0.00,,,0.00,meteohub,2013-02-19 16:22:00,
2013-02-19 09:32:00,25.5,-2.4,30.23,SW,216,3.0,6.0,29,0.00,,,0.00,meteohub,2013-02-19 16:32:00,
2013-02-19 09:42:00,26.6,-1.3,30.22,SW,214,1.0,7.0,29,0.00,,,0.00,meteohub,2013-02-19 16:42:00,
2013-02-19 09:52:00,28.2,-0.8,30.22,SW,214,3.0,7.0,28,0.00,,,0.00,meteohub,2013-02-19 16:52:00,
2013-02-19 10:02:00,29.7,-0.2,30.22,South,191,5.0,7.0,27,0.00,,,0.00,meteohub,2013-02-19 17:02:00,
2013-02-19 10:12:00,30.9,-0.8,30.21,South,177,7.0,10.0,25,0.00,,,0.00,meteohub,2013-02-19 17:12:00,
2013-02-19 10:22:00,32.4,-1.3,30.21,SSE,166,8.0,12.0,23,0.00,,,0.00,meteohub,2013-02-19 17:22:00,
2013-02-19 10:32:00,33.1,-2.6,30.21,SSE,151,6.0,15.0,21,0.00,,,0.00,meteohub,2013-02-19 17:32:00,
2013-02-19 10:42:00,34.0,-2.9,30.20,SSE,164,10.0,15.0,20,0.00,,,0.00,meteohub,2013-02-19 17:42:00,
2013-02-19 10:52:00,34.3,-4.7,30.20,SSE,152,11.0,18.0,18,0.00,,,0.00,meteohub,2013-02-19 17:52:00,
2013-02-19 11:02:00,34.9,-3.3,30.20,South,183,13.0,18.0,19,0.00,,,0.00,meteohub,2013-02-19 18:02:00,
2013-02-19 11:12:00,34.5,-3.5,30.19,South,189,9.0,17.0,19,0.00,,,0.00,meteohub,2013-02-19 18:12:00,
2013-02-19 11:22:00,34.5,-2.4,30.18,SSW,195,18.0,18.0,20,0.00,,,0.00,meteohub,2013-02-19 18:22:00,
2013-02-19 11:32:00,33.1,-2.6,30.17,SSW,213,17.0,22.0,21,0.00,,,0.00,meteohub,2013-02-19 18:32:00,
2013-02-19 11:42:00,32.5,-2.0,30.17,SSW,194,8.0,21.0,22,0.00,,,0.00,meteohub,2013-02-19 18:42:00,
2013-02-19 11:52:00,34.3,-0.6,30.16,SSW,195,13.0,21.0,22,0.00,,,0.00,meteohub,2013-02-19 18:52:00,
2013-02-19 12:02:00,34.5,-3.5,30.15,SSW,203,18.0,22.0,19,0.00,,,0.00,meteohub,2013-02-19 19:02:00,
2013-02-19 12:12:00,34.3,-4.7,30.14,South,187,14.0,25.0,18,0.00,,,0.00,meteohub,2013-02-19 19:12:00,
2013-02-19 12:22:00,34.0,-5.1,30.13,SSW,199,18.0,24.0,18,0.00,,,0.00,meteohub,2013-02-19 19:22:00,
2013-02-19 12:32:00,33.6,-5.4,30.12,South,186,17.0,24.0,18,0.00,,,0.00,meteohub,2013-02-19 19:32:00,
2013-02-19 12:42:00,34.0,-4.0,30.12,South,181,14.0,23.0,19,0.00,,,0.00,meteohub,2013-02-19 19:42:00,
2013-02-19 12:52:00,35.1,-5.4,30.11,SSW,205,13.0,19.0,17,0.00,,,0.00,meteohub,2013-02-19 19:52:00,
2013-02-19 13:02:00,36.1,-4.5,30.10,South,184,16.0,23.0,17,0.00,,,0.00,meteohub,2013-02-19 20:02:00,
2013-02-19 13:12:00,35.8,-4.7,30.09,South,189,13.0,23.0,17,0.00,,,0.00,meteohub,2013-02-19 20:12:00,
2013-02-19 13:22:00,35.8,-4.7,30.09,South,171,16.0,23.0,17,0.00,,,0.00,meteohub,2013-02-19 20:22:00,
2013-02-19 13:32:00,34.7,-3.5,30.08,South,174,12.0,24.0,19,0.00,,,0.00,meteohub,2013-02-19 20:32:00,
2013-02-19 13:42:00,35.1,-4.2,30.07,SSW,207,15.0,21.0,18,0.00,,,0.00,meteohub,2013-02-19 20:42:00,
2013-02-19 13:52:00,34.0,-4.0,30.07,South,186,10.0,22.0,19,0.00,,,0.00,meteohub,2013-02-19 20:52:00,
2013-02-19 14:02:00,33.4,-3.3,30.06,South,176,12.0,20.0,20,0.00,,,0.00,meteohub,2013-02-19 21:02:00,
2013-02-19 14:12:00,33.1,-3.6,30.06,SSW,199,14.0,21.0,20,0.00,,,0.00,meteohub,2013-02-19 21:12:00,
2013-02-19 14:22:00,32.5,-4.2,30.05,South,180,17.0,23.0,20,0.00,,,0.00,meteohub,2013-02-19 21:22:00,
2013-02-19 14:32:00,32.5,-4.2,30.06,South,174,7.0,21.0,20,0.00,,,0.00,meteohub,2013-02-19 21:32:00,
2013-02-19 14:42:00,32.7,-4.0,30.06,South,191,15.0,20.0,20,0.00,,,0.00,meteohub,2013-02-19 21:42:00,
2013-02-19 14:52:00,33.1,-3.6,30.06,South,180,9.0,17.0,20,0.00,,,0.00,meteohub,2013-02-19 21:52:00,
2013-02-19 15:02:00,33.4,-3.3,30.05,South,183,9.0,18.0,20,0.00,,,0.00,meteohub,2013-02-19 22:02:00,
2013-02-19 15:12:00,33.4,-3.3,30.04,SSE,166,13.0,17.0,20,0.00,,,0.00,meteohub,2013-02-19 22:12:00,
2013-02-19 15:22:00,33.8,-2.0,30.04,SSW,201,16.0,20.0,21,0.00,,,0.00,meteohub,2013-02-19 22:22:00,
2013-02-19 15:32:00,33.8,-2.0,30.04,South,189,8.0,20.0,21,0.00,,,0.00,meteohub,2013-02-19 22:32:00,
2013-02-19 15:42:00,33.8,-1.1,30.03,SSW,199,9.0,20.0,22,0.00,,,0.00,meteohub,2013-02-19 22:42:00,
2013-02-19 15:52:00,34.0,0.1,30.02,South,187,12.0,15.0,23,0.00,,,0.00,meteohub,2013-02-19 22:52:00,
2013-02-19 16:02:00,34.0,0.1,30.02,South,186,6.0,15.0,23,0.00,,,0.00,meteohub,2013-02-19 23:02:00,
2013-02-19 16:12:00,33.8,0.9,30.02,South,183,8.0,12.0,24,0.00,,,0.00,meteohub,2013-02-19 23:12:00,
2013-02-19 16:22:00,33.3,0.3,30.02,South,178,6.0,12.0,24,0.00,,,0.00,meteohub,2013-02-19 23:22:00,
2013-02-19 16:32:00,32.7,0.7,30.01,SSW,199,11.0,12.0,25,0.00,,,0.00,meteohub,2013-02-19 23:32:00,
2013-02-19 16:42:00,32.5,1.4,30.01,South,190,7.0,15.0,26,0.00,,,0.00,meteohub,2013-02-19 23:42:00,
2013-02-19 16:52:00,32.4,1.2,30.00,South,176,10.0,12.0,26,0.00,,,0.00,meteohub,2013-02-19 23:52:00,
2013-02-19 17:02:00,32.2,1.9,30.00,South,187,9.0,16.0,27,0.00,,,0.00,meteohub,2013-02-20 00:02:00,
2013-02-19 17:12:00,32.0,1.8,30.00,SSW,192,7.0,15.0,27,0.00,,,0.00,meteohub,2013-02-20 00:12:00,
2013-02-19 17:22:00,32.0,1.8,30.00,South,189,14.0,15.0,27,0.00,,,0.00,meteohub,2013-02-20 00:22:00,
2013-02-19 17:32:00,32.0,1.8,29.99,South,190,8.0,16.0,27,0.00,,,0.00,meteohub,2013-02-20 00:32:00,
2013-02-19 17:42:00,31.8,1.6,29.99,South,188,11.0,16.0,27,0.00,,,0.00,meteohub,2013-02-20 00:42:00,
2013-02-19 17:52:00,31.6,1.4,30.00,South,191,11.0,15.0,27,0.00,,,0.00,meteohub,2013-02-20 00:52:00,
2013-02-19 18:02:00,31.5,1.4,29.99,South,186,10.0,15.0,27,0.00,,,0.00,meteohub,2013-02-20 01:02:00,
2013-02-19 18:12:00,31.3,1.9,30.00,SSW,205,7.0,15.0,28,0.00,,,0.00,meteohub,2013-02-20 01:12:00,
2013-02-19 18:22:00,31.1,1.8,29.99,SSW,206,4.0,9.0,28,0.00,,,0.00,meteohub,2013-02-20 01:22:00,
2013-02-19 18:32:00,31.3,1.9,29.99,SW,222,8.0,8.0,28,0.00,,,0.00,meteohub,2013-02-20 01:32:00,
2013-02-19 18:42:00,32.0,1.8,29.99,SW,231,8.0,10.0,27,0.00,,,0.00,meteohub,2013-02-20 01:42:00,
2013-02-19 18:52:00,32.4,2.1,29.99,SW,220,4.0,11.0,27,0.00,,,0.00,meteohub,2013-02-20 01:52:00,
2013-02-19 19:02:00,32.2,1.9,29.99,SW,216,4.0,9.0,27,0.00,,,0.00,meteohub,2013-02-20 02:02:00,
2013-02-19 19:12:00,32.2,1.9,29.99,WSW,239,5.0,12.0,27,0.00,,,0.00,meteohub,2013-02-20 02:12:00,
2013-02-19 19:22:00,32.2,1.9,29.99,SW,236,5.0,12.0,27,0.00,,,0.00,meteohub,2013-02-20 02:22:00,
2013-02-19 19:32:00,32.2,2.7,29.99,SW,228,4.0,11.0,28,0.00,,,0.00,meteohub,2013-02-20 02:32:00,
2013-02-19 19:42:00,32.0,2.5,29.98,SW,224,6.0,10.0,28,0.00,,,0.00,meteohub,2013-02-20 02:42:00,
2013-02-19 19:52:00,31.8,2.5,29.97,SW,220,6.0,9.0,28,0.00,,,0.00,meteohub,2013-02-20 02:52:00,
2013-02-19 20:02:00,31.8,2.5,29.97,SSW,209,3.0,11.0,28,0.00,,,0.00,meteohub,2013-02-20 03:02:00,
2013-02-19 20:12:00,31.3,2.7,29.96,SW,223,8.0,8.0,29,0.00,,,0.00,meteohub,2013-02-20 03:12:00,
2013-02-19 20:22:00,31.6,2.3,29.96,SW,219,7.0,13.0,28,0.00,,,0.00,meteohub,2013-02-20 03:22:00,
2013-02-19 20:32:00,30.9,2.3,29.96,SW,219,2.0,13.0,29,0.00,,,0.00,meteohub,2013-02-20 03:32:00,
2013-02-19 20:42:00,30.4,2.7,29.96,SW,219,1.0,5.0,30,0.00,,,0.00,meteohub,2013-02-20 03:42:00,
2013-02-19 20:52:00,30.2,2.5,29.96,SW,219,4.0,6.0,30,0.00,,,0.00,meteohub,2013-02-20 03:52:00,
2013-02-19 21:02:00,30.6,2.8,29.95,SW,219,1.0,6.0,30,0.00,,,0.00,meteohub,2013-02-20 04:02:00,
2013-02-19 21:12:00,30.2,3.2,29.96,SW,219,0.0,5.0,31,0.00,,,0.00,meteohub,2013-02-20 04:12:00,
2013-02-19 21:22:00,29.8,2.8,29.95,SW,219,6.0,7.0,31,0.00,,,0.00,meteohub,2013-02-20 04:22:00,
2013-02-19 21:32:00,29.5,3.2,29.95,SW,219,3.0,7.0,32,0.00,,,0.00,meteohub,2013-02-20 04:32:00,
2013-02-19 21:42:00,29.7,3.4,29.94,SW,219,0.0,6.0,32,0.00,,,0.00,meteohub,2013-02-20 04:42:00,
2013-02-19 21:52:00,29.8,2.8,29.94,SW,219,2.0,8.0,31,0.00,,,0.00,meteohub,2013-02-20 04:52:00,
2013-02-19 22:02:00,31.5,2.8,29.93,SW,232,3.0,12.0,29,0.00,,,0.00,meteohub,2013-02-20 05:02:00,
2013-02-19 22:12:00,30.9,2.3,29.92,SW,232,1.0,11.0,29,0.00,,,0.00,meteohub,2013-02-20 05:12:00,
2013-02-19 22:22:00,27.9,3.7,29.92,SW,232,1.0,6.0,35,0.00,,,0.00,meteohub,2013-02-20 05:22:00,
2013-02-19 22:32:00,26.1,3.4,29.92,SW,232,2.0,6.0,37,0.00,,,0.00,meteohub,2013-02-20 05:32:00,
2013-02-19 22:42:00,25.3,3.2,29.93,SW,231,3.0,5.0,38,0.00,,,0.00,meteohub,2013-02-20 05:42:00,
2013-02-19 22:52:00,25.0,3.0,29.92,SW,219,3.0,7.0,38,0.00,,,0.00,meteohub,2013-02-20 05:52:00,
2013-02-19 23:02:00,24.4,3.6,29.93,SW,218,6.0,6.0,40,0.00,,,0.00,meteohub,2013-02-20 06:02:00,
2013-02-19 23:12:00,24.3,3.9,29.93,SW,218,1.0,6.0,41,0.00,,,0.00,meteohub,2013-02-20 06:12:00,
2013-02-19 23:22:00,23.9,4.1,29.92,SW,218,0.0,5.0,42,0.00,,,0.00,meteohub,2013-02-20 06:22:00,
2013-02-19 23:32:00,23.5,3.7,29.92,SW,218,1.0,4.0,42,0.00,,,0.00,meteohub,2013-02-20 06:32:00,
2013-02-19 23:42:00,23.4,4.1,29.92,SW,218,0.0,2.0,43,0.00,,,0.00,meteohub,2013-02-20 06:42:00,
2013-02-19 23:52:00,23.2,3.9,29.91,SW,218,0.0,2.0,43,0.00,,,0.00,meteohub,2013-02-20 06:52:00,